Regional Weather Roundup
Issued by NWS Newport/Morehead, NC

Current Version | Previous Version | Graphics & Text | Print | Product List | Glossary Off
Versions: 1 2 3 4 5 6 7 8 9 10 11 12 13 14 15 16 17 18 19 20 21 22 23 24 25 26 27 28 29 30 31 32 33 34 35 36 37 38 39 40 41 42 43 44 45 46 47 48 49 50
000 ASUS42 KMHX 050025 RWRMHX WEATHER ROUNDUP FOR EASTERN NORTH CAROLINA NATIONAL WEATHER SERVICE NEWPORT/MOREHEAD CITY NC 800 PM EDT SAT JUL 04 2015 NOTE: "FAIR" INDICATES FEW OR NO CLOUDS BELOW 12,000 FEET WITH NO SIGNIFICANT WEATHER AND/OR OBSTRUCTIONS TO VISIBILITY NCZ015>017-031-032-045>047-102-103-050100- NORTH COAST CITY SKY/WX TMP DP RH WIND PRES REMARKS EDENTON N/A 80 73 80 SW6 29.97R ELIZABETH CITY PTCLDY 79 71 76 SW9 29.95S KITTY HAWK PTCLDY 78 71 77 SW3 29.96S MANTEO PTCLDY 77 72 83 SW7 29.98R $$ NCZ045>047-081-094-103-104-050100- CENTRAL COAST CITY SKY/WX TMP DP RH WIND PRES REMARKS FRISCO MOCLDY 79 73 82 SW16G22 30.00R SWANQUARTER N/A 84 N/A N/A SW18G24 29.94S $$ NCZ095-097-098-100-101-050100- SOUTHERN COAST CITY SKY/WX TMP DP RH WIND PRES REMARKS BEAUFORT PTCLDY 81 73 76 SW18 30.01S CEDAR ISLAND N/A 82 N/A N/A SW16G23 30.03S JACKSONVILLE CLEAR 83 72 69 S7 30.00R PINEY ISLAND MOCLDY N/A N/A N/A SW17 30.00R WILMINGTON CLEAR 83 71 67 SW10 30.02R $$ NCZ011>013-027>030-043-044-078>080-089-090>093-098-050100- COASTAL PLAIN CITY SKY/WX TMP DP RH WIND PRES REMARKS AHOSKIE CLEAR N/A N/A N/A CALM 29.97R CLINTON PTCLDY 83 70 66 SW6 30.01S ELIZABETHTOWN PTCLDY 84 70 63 CALM 30.01S GOLDSBORO MOCLDY 85 68 57 SW9 29.97R GREENVILLE PTCLDY 81 70 69 SW3 30.00R HAVELOCK PTCLDY 83 71 67 SW13 30.02R KENANSVILLE PTCLDY 83 66 56 SW7 30.02R KINSTON PTCLDY 86 66 51 SW10 29.99S NEW BERN PTCLDY 84 66 54 SW8 30.01R RICHLANDS CLEAR 81 66 61 SW6 30.02R ROCKY MOUNT CLOUDY 75 73 93 S3 29.99R WASHINGTON PTCLDY 80 69 69 CALM 29.99R WHITEVILLE PTCLDY 84 70 61 CALM 30.01S $$ AMZ130-135-150-152-154-156-158-170-250-252-270-ANZ085-086-088-633-658-670-050100- MARINE OBSERVATIONS STATION/POSITION TIME TEMP WIND PRES WAVE SWELL AIR SEA DIR/SP/G HT/PER HT/PER (UTC) (F) (DEG/KT/KT) (MB) (FT/S) (FT/S) CHESAPEAKE LIGHT 0000 78 220/ 7/ 8 1014.5 64 E VA BEACH 2350 78 76 240/ 16/ 17 1013.4 6/ 8 3/ 8 DUCK 0000 80 72 230/ 11/ 13 N/A 2 E DUCK 2311 77 N/A 2/ 8 OREGON INLET 0000 79 82 200/ 9/ 10 1014.9 13E OREGON INLT 0000 71 N/A 4/ 7 2/14 HATTERAS CG 0000 80 80 220/ 11/ 18 1015.6 DIAMOND BUOY 2350 82 81 210/ 23/ 27 1015.5 6/ 6 2/ 8 CAPE LOOKOUT 0000 81 210/ 13/ 17 1016.4 BEAUFORT LAB 0000 81 81 220/ 12/ 19 1015.6 30 SE NEW RVR IN NOT AVBL 27 SE WRIGHTSVLE 0000 80 230/ 17/ 21 N/A 5 SE WRIGHTSVLE 2308 80 79 220/ 14/ 17 1016.6 225 S CAPE HAT 2350 82 80 220/ 8/ 10 1020.7 5/ 6 5/ 6 41 SE CHARLESTON 2350 82 82 210/ 16/ 17 1018.0 3/ 8 2/ 8 $$

USA.gov is the U.S. government's official web portal to all federal, state and local government web resources and services.